Regional Weather Roundup
Issued by NWS

Home | Current Version | Previous Version | Graphics & Text | Print | Product List | Glossary Off
Versions: 1 2 3 4 5 6 7 8 9 10 11 12 13 14 15 16 17 18 19 20 21 22 23 24 25 26 27 28 29 30 31 32 33 34 35 36 37 38 39 40 41 42 43 44 45 46 47 48 49 50

000
ASUS43 KTOP 210308
RWRKS

WEATHER ROUNDUP FOR KANSAS
NATIONAL WEATHER SERVICE GOODLAND KS
1000 PM CDT MON APR 20 2015

NOTE:  "FAIR" INDICATES FEW OR NO CLOUDS BELOW 12,000 FEET WITH NO
SIGNIFICANT WEATHER AND/OR OBSTRUCTIONS TO VISIBILITY.

KSZ001>006-013>018-027>032-041>047-210400-
NORTHWEST KANSAS

CITY           SKY/WX    TMP DP  RH WIND       PRES   REMARKS
GOODLAND       CLEAR     44  34  67 NW3       29.93R
HAYS           CLEAR     48  27  43 CALM      29.91R
HILL CITY      CLEAR     46  34  62 CALM      29.90R
RUSSELL        CLEAR     52  27  38 CALM      29.89R
$$

KSZ061>065-074>080-084>089-210400-
SOUTHWEST KANSAS

CITY           SKY/WX    TMP DP  RH WIND       PRES   REMARKS
DODGE CITY     CLEAR     50  31  48 SW5       29.94R
ELKHART          N/A     52  38  59 S6          N/A
GARDEN CITY    PTCLDY    48  32  53 S6        29.92R
GREAT BEND     CLEAR     48  36  61 S9        29.91R
LIBERAL        CLOUDY    55  28  35 E10       29.96R
PRATT          CLEAR     45  37  76 SW8       29.94R
$$

KSZ066>073-081>083-090>101-210400-
SOUTHEAST KANSAS

CITY           SKY/WX    TMP DP  RH WIND       PRES   REMARKS
CHANUTE        CLEAR     48  37  65 SW6       29.92R
COFFEYVILLE    CLEAR     48  42  80 S5        29.94R
HUTCHINSON     CLEAR     44  36  73 CALM      29.91R
MEDICINE LODGE   N/A     53  34  48 S6        29.93R
NEWTON         CLEAR     52  34  50 SW5       29.93R
PARSONS        CLEAR     47  43  86 CALM      29.94R
WICHITA INTL   FAIR      49  36  61 S5        29.92R
WICHITA JABRA  FAIR      53  33  46 SW6       29.92R
WICHITA MCCONL CLEAR     51  36  56 SW3       29.92R
WINFIELD       CLEAR     49  40  71 S6        29.95R
$$

KSZ007>012-019>026-033>040-048>060-102>105-210400-
NORTHEAST KANSAS

CITY           SKY/WX    TMP DP  RH WIND       PRES   REMARKS
CONCORDIA      CLEAR     48  28  46 W5        29.87R
EMPORIA        CLEAR     45  35  68 SW8       29.89R
LAWRENCE       PTCLDY    40  34  79 CALM      29.87R
MANHATTAN      CLEAR     49  29  46 W6        29.88R
MARYSVILLE     CLEAR     48  28  46 W3        29.85R
OLATHE IND     CLEAR     45  31  58 SW7       29.88R
OLATHE EXE     CLEAR     49  29  46 SW5       29.86R
SALINA         CLEAR     49  33  54 SW8       29.90R
TOPEKA BILLARD CLEAR     49  31  49 SW3       29.87R
TOPEKA FORBES  CLEAR     49  30  48 SW8       29.87R
$$



USA.gov is the U.S. government's official web portal to all federal, state and local government web resources and services.